Cloud_Cover
3 0 7 98 100 99 98 100 100 83 59 16 98 69 54 81 100 100 100 99 97 40 57 47 6 32 6 5 5 4 4 1 5 5 6 5 4 0 2 2 4 5 5
5 0 5 8 29 100 100 79 100 100 71 86 100 87 100 100 66 98 18 42 7 72 100 100 50 17 90 5 6 5 20 5 5 7 39 5 5 5 5 2 4 0 0
4 0 40 82 16 87 100 98 80 100 100 100 100 100 97 74 77 90 40 95 88 93 96 100 100 62 16 95 29 99 22 45 22 5 6 13 5 5 5 5 5 5 4
7 0 1 42 99 100 100 98 98 30 100 87 73 82 97 100 100 100 100 96 54 97 99 96 100 100 100 92 84 24 22 13 53 88 19 2 1 30 25 11 5 5 12
5 8 13 99 100 100 96 87 100 42 100 100 93 98 99 100 93 93 96 100 60 65 99 100 96 100 100 99 88 98 88 99 99 99 96 100 99 17 50 32 13 45 21
20 4 63 100 99 99 100 100 68 73 87 100 100 97 74 97 100 100 100 100 100 100 95 93 99 100 100 100 98 99 100 100 100 100 100 100 100 100 100 100 84 9 61
56 72 99 94 99 81 80 100 81 93 99 100 100 100 100 100 91 100 100 86 100 100 80 86 85 100 92 97 89 74 55 44 80 80 81 95 100 100 94 93 100 100 100
100 100 100 100 93 100 100 100 100 100 100 100 100 100 100 100 100 83 100 100 100 98 92 99 100 73 100 100 83 99 100 69 5 8 21 5 9 24 15 6 17 36 79
97 100 100 100 100 100 100 100 100 100 100 100 98 85 100 100 100 100 100 100 100 100 100 100 100 100 100 100 100 93 99 16 50 90 88 9 5 42 12 6 13 22 98
100 100 100 100 100 100 100 100 100 100 100 100 100 100 100 100 100 100 100 100 100 100 100 61 40 6 33 40 45 76 72 86 100 100 89 100 90 16 8 6 6 17 5
100 100 100 100 100 100 100 100 100 100 100 100 100 100 100 100 100 100 100 100 100 100 100 98 89 91 75 49 39 42 45 49 61 50 21 19 5 86 94 78 87 98 75
100 100 100 100 100 100 100 100 100 100 100 100 100 100 100 100 100 100 100 100 100 100 100 100 100 100 100 100 100 100 100 96 100 86 95 69 63 17 38 68 70 27 17
100 100 100 100 100 100 100 100 100 100 100 100 100 99 100 100 100 100 100 99 100 100 100 100 100 100 100 100 100 100 100 100 100 100 100 100 97 56 29 26 69 80 94
100 100 100 100 100 100 100 100 100 100 100 100 100 100 100 100 100 100 100 100 100 100 100 100 100 100 100 100 100 100 100 100 99 99 99 98 80 96 70 100 98 100 98
100 100 100 100 100 100 100 100 100 100 100 100 100 100 100 100 100 100 100 100 100 100 100 100 100 100 100 100 100 100 100 100 100 100 100 98 87 98 96 53 70 96 100
100 100 100 100 100 100 100 100 100 100 100 100 100 100 97 100 100 100 100 100 100 100 100 100 100 100 100 100 100 100 100 100 100 100 100 99 100 100 100 100 96 100 100
100 100 100 100 100 100 100 100 100 100 100 100 100 100 100 100 100 100 100 100 100 98 78 99 100 100 100 100 100 100 100 99 100 100 100 100 100 100 100 100 100 100 100
100 100 100 100 100 100 100 100 100 100 100 100 100 100 100 100 100 100 100 100 100 100 100 100 98 100 100 100 54 100 100 91 100 100 100 100 100 100 100 96 100 100 100
100 100 100 100 100 100 100 100 100 100 100 100 100 100 100 100 100 100 100 100 100 100 100 100 100 100 100 100 86 100 100 100 100 100 100 100 100 100 100 100 100 100 100
100 100 100 100 100 100 100 100 100 100 100 100 100 100 100 100 100 100 100 100 100 100 100 100 100 100 100 100 100 100 100 100 100 100 100 100 100 100 100 100 76 92 94
0 45 68 100 100 100 100 100 97 100 100 54 100 100 100 100 98 88 100 100 100 100 100 100 100 100 100 100 100 100 100 100 100 100 100 100 100 100 100 99 100 100 94
0 0 0 0 42 95 100 100 99 91 92 100 100 96 96 100 100 100 100 100 100 100 100 100 100 100 100 100 100 100 100 100 100 100 100 100 100 100 100 100 100 100 100
0 0 0 0 1 2 5 36 100 100 92 33 27 56 80 100 99 56 64 94 79 46 91 100 100 100 100 100 100 100 100 100 100 100 100 100 100 100 100 100 100 100 100
0 4 5 5 5 4 5 5 5 5 1 1 0 1 3 0 2 9 12 6 0 0 0 0 27 100 100 100 100 100 100 100 100 100 100 100 100 100 100 100 100 100 100
0 3 2 4 1 1 5 15 22 70 72 79 51 88 98 63 96 56 23 5 3 2 0 0 0 0 0 6 5 28 96 100 100 100 100 100 100 100 100 100 100 100 100
2 42 97 24 18 8 14 75 92 100 97 100 100 100 99 100 100 100 100 100 100 100 99 53 25 6 14 3 4 2 1 1 1 0 0 4 29 44 78 90 100 100 92